Location: Capel Gartheli
(52.1833°N, 4.0667°W)
Time: 03:46:41
(UTC+00:00)

ATLAS 2AS CENTAUR R/B - Pass Details

Date: 18 February 2020
Orbit: 929 x 1283 km, 63.7° (Epoch: 05 April)

Event Time Altitude Azimuth Distance (km) Brightness Sun altitude
Exits shadow 03:26:53 35° 339° (NNW) 1,921 4.0 -36.3°
Maximum altitude 03:27:50 36° 354° (N) 1,881 4.0 -36.2°
Drops below altitude 10° 03:34:50 10° 59° (ENE) 3,155 5.9 -35.3°
Sets 03:37:49 0° 68° (ENE) 4,070 6.8 -34.9°
